Home   Weather   Linköping   Past weeks
Flag for Sweden

Past Weather in Linköping, Sweden — Yesterday and Last 2 Weeks

Now
34 °F

Clear.


Feels Like: 29 °F
Forecast: 46 / 30 °F
Wind: 6 mph from Northwest

Location: Linkoping / Saab

Current Time: Jan 22, 2020 at 9:47:11 pm

Latest Report: Jan 22, 2020 at 9:20 pm


Visibility: 10 mi

Pressure: 30.33 "Hg

Humidity: 65%

Dew Point: 23 °F

Location of LinköpingLocation

Past Weather in Linköping — Graph

°F

Linköping Temperature Yesterday

Maximum temperature yesterday: 48 °F (at 8:50 am)
Minimum temperature yesterday: 41 °F (at 11:50 pm)
Average temperature yesterday: 46 °F

High & Low Weather Summary for the Past Weeks

 TemperatureHumidityPressure
High54 °F (Jan 15, 5:50 am)100% (Jan 9, 6:50 pm)30.54 "Hg (Jan 9, 6:50 pm)
Low25 °F (Jan 11, 1:50 am)49% (Jan 22, 11:50 am)29.27 "Hg (Jan 15, 3:20 am)
Average41 °F85%29.89 "Hg
* Reported Jan 7 8:20 pm — Jan 22 8:20 pm, Linköping. Weather by CustomWeather, © 2020

Note: Actual official high and low records may vary slightly from our data, if they occured in-between our weather recording intervals... More about our weather records

Linköping Weather History for the Previous 24 Hours

Scroll right to see more
 ConditionsComfort  
Time TempWeatherWind HumidityBarometerVisibility
8:20 pm
Wed, Jan 22
34 °FClear.7 mph65%30.33 "Hg10 mi
7:50 pm34 °FPassing clouds.8 mph65%30.33 "HgN/A
7:20 pm36 °FClear.9 mph65%30.33 "Hg10 mi
6:50 pm36 °FClear.9 mph60%30.30 "Hg10 mi
6:20 pm34 °FClear.8 mph65%30.30 "Hg10 mi
5:50 pm36 °FClear.10 mph60%30.30 "Hg10 mi
5:20 pm36 °FClear.7 mph65%30.30 "Hg10 mi
4:50 pm37 °FClear.9 mph56%30.30 "Hg10 mi
4:20 pm37 °FPassing clouds.12 mph56%30.27 "HgN/A
3:50 pm39 °FSunny.15 mph56%30.27 "Hg10 mi
3:20 pm39 °FSunny.15 mph52%30.27 "Hg10 mi
2:50 pm39 °FSunny.16 mph52%30.24 "Hg10 mi
2:20 pm41 °FSunny.18 mph53%30.24 "Hg10 mi
1:50 pm41 °FSunny.18 mph49%30.21 "Hg10 mi
1:20 pm41 °FSunny.20 mph53%30.21 "Hg10 mi
12:50 pm41 °FSunny.17 mph49%30.21 "Hg10 mi
12:20 pm41 °FPassing clouds.20 mph49%30.18 "HgN/A
11:50 am41 °FSunny.18 mph49%30.18 "Hg10 mi
11:20 am41 °FSunny.21 mph53%30.15 "Hg10 mi
10:50 am41 °FSunny.21 mph57%30.15 "Hg10 mi
10:20 am41 °FSunny.20 mph57%30.12 "Hg10 mi
9:50 am39 °FSunny.16 mph65%30.12 "Hg10 mi
9:20 am39 °FSunny.17 mph70%30.12 "Hg10 mi
8:50 am39 °FSunny.16 mph75%30.09 "Hg10 mi
8:20 am39 °FClear.15 mph75%30.09 "Hg10 mi
7:50 am39 °FClear.14 mph75%30.09 "Hg10 mi
7:20 am39 °FClear.13 mph75%30.07 "Hg10 mi
6:50 am39 °FPassing clouds.14 mph75%30.07 "HgN/A
6:20 am39 °FPassing clouds.15 mph75%30.07 "HgN/A
5:50 am39 °FClear.14 mph75%30.07 "Hg10 mi
5:20 am41 °FQuite cool.16 mph70%30.07 "HgN/A
4:50 am41 °FQuite cool.15 mph70%30.04 "HgN/A
4:20 am41 °FQuite cool.14 mph70%30.04 "HgN/A
3:50 am41 °FQuite cool.13 mph70%30.04 "HgN/A
3:20 am41 °FPassing clouds.14 mph70%30.04 "HgN/A
2:50 am43 °FPassing clouds.13 mph66%30.04 "HgN/A
2:20 am41 °FPassing clouds.14 mph70%30.04 "HgN/A
1:50 am41 °FMostly cloudy.16 mph70%30.04 "HgN/A
1:20 am41 °FPassing clouds.16 mph76%30.01 "HgN/A
12:50 am41 °FPassing clouds.17 mph76%30.04 "HgN/A
12:20 am41 °FOvercast.15 mph81%30.04 "HgN/A
11:50 pm
Tue, Jan 21
41 °FOvercast.13 mph87%30.04 "HgN/A
11:20 pm43 °FPassing clouds.13 mph81%30.07 "HgN/A
10:50 pm43 °FPassing clouds.9 mph81%30.07 "HgN/A
10:20 pm43 °FPassing clouds.10 mph87%30.07 "HgN/A
9:50 pm45 °FClear.14 mph81%30.09 "Hg10 mi
9:20 pm45 °FPassing clouds.9 mph81%30.07 "HgN/A
Weather by CustomWeather, © 2020

See weather overview

Advertising